CW0213 Weather Reports


time (UTC)temp
F
wind
direction
speed
knots
gust
knots
rain 1hr
in
rain 24hr
in
rain mn
in
humidity
%
barometer
mb
20260505101533 54 180 7.0 13.9 0.00 0.00 0.00 87 1008.1
20260505100026 54 176 5.2 14.8 0.00 0.00 0.00 86 1007.9
20260505094525 54 200 5.2 14.8 0.00 0.00 0.00 86 1007.8
20260505093024 54 150 6.1 12.2 0.00 0.00 0.00 85 1007.7
20260505091523 55 155 7.8 16.5 0.00 0.00 0.00 83 1007.7
20260505090036 55 164 7.8 14.8 0.00 0.00 0.00 82 1007.6
20260505084520 55 141 6.1 14.8 0.00 0.00 0.00 84 1007.3
20260505083018 54 186 7.0 15.6 0.00 0.00 0.00 86 1007.2
20260505081515 54 186 9.6 18.2 0.00 0.00 0.00 85 1007.0
20260505080032 55 159 7.0 13.9 0.00 0.00 0.00 84 1006.9
20260505074509 55 224 7.0 12.2 0.00 0.00 0.00 83 1006.8
20260505073010 55 187 7.0 13.0 0.00 0.00 0.00 82 1006.6
20260505071502 56 156 7.8 14.8 0.00 0.00 0.00 81 1006.3
20260505070100 56 202 6.1 14.8 0.00 0.00 0.00 81 1006.2
20260505064558 57 232 7.0 14.8 0.00 0.00 0.00 80 1006.3
20260505063056 56 186 6.1 14.8 0.00 0.00 0.00 80 1006.0
20260505061553 57 188 7.0 15.6 0.00 0.00 0.00 79 1006.0
20260505060051 58 178 5.2 11.3 0.00 0.00 0.00 79 1005.9
20260505054555 58 229 6.1 14.8 0.00 0.00 0.00 79 1005.7
20260505053047 58 178 6.1 12.2 0.00 0.00 0.00 78 1005.7
20260505051546 59 189 5.2 12.2 0.00 0.00 0.00 79 1005.6
20260505041544 62 205 5.2 13.0 0.00 0.00 0.00 75 1005.2
20260505040042 64 198 6.1 11.3 0.00 0.00 0.00 73 1005.1
20260505034541 65 178 5.2 10.4 0.00 0.00 0.00 67 1004.9
20260505033043 67 199 3.5 8.7 0.00 0.00 0.00 60 1004.8
20260505031553 67 182 3.5 6.1 0.00 0.00 0.00 59 1004.6
20260505030044 67 195 4.3 7.8 0.00 0.00 0.00 58 1004.7
20260505024548 67 202 3.5 7.0 0.00 0.00 0.00 60 1004.6
20260505023042 67 181 3.5 8.7 0.00 0.00 0.00 62 1004.6
20260505021537 70 195 2.6 5.2 0.00 0.00 0.00 64 1004.8
20260505020036 71 189 1.7 4.3 0.00 0.00 0.00 65 1004.9
20260505014555 71 209 3.5 7.8 0.00 0.00 0.00 59 1005.0
20260505013034 72 257 4.3 9.6 0.00 0.00 0.00 56 1005.0
20260505011540 74 242 4.3 7.8 0.00 0.00 0.00 54 1005.1
20260505010033 75 249 4.3 8.7 0.00 0.00 0.00 55 1005.1
20260505004533 75 246 2.6 9.6 0.00 0.00 0.00 54 1004.9
20260505003032 75 232 4.3 10.4 0.00 0.00 0.00 53 1004.9
20260505001531 76 211 3.5 9.6 0.00 0.00 0.00 53 1005.1
20260505000031 77 190 2.6 7.8 0.00 0.00 0.00 51 1005.2
20260504234528 77 249 1.7 7.0 0.00 0.00 0.00 50 1005.4
20260504233028 77 211 2.6 7.0 0.00 0.00 0.00 49 1005.4
20260504231525 77 250 1.7 7.0 0.00 0.00 0.00 47 1005.5
20260504230023 76 246 2.6 9.6 0.00 0.00 0.00 46 1005.6
20260504224527 76 244 3.5 8.7 0.00 0.00 0.00 46 1005.8
20260504223020 75 211 4.3 7.8 0.00 0.00 0.00 47 1005.9
20260504221522 76 259 2.6 10.4 0.00 0.00 0.00 46 1006.0
20260504220018 76 240 5.2 13.0 0.00 0.00 0.00 48 1005.9
20260504214519 75 262 5.2 10.4 0.00 0.00 0.00 50 1006.0
20260504213020 76 250 3.5 9.6 0.00 0.00 0.00 51 1006.1
20260504211518 75 258 3.5 7.0 0.00 0.00 0.00 49 1006.4
20260504210128 76 251 2.6 6.1 0.00 0.00 0.00 50 1006.2
20260504204606 75 254 2.6 6.1 0.00 0.00 0.00 51 1006.5
20260504203032 74 254 1.7 7.0 0.00 0.00 0.00 55 1006.6
20260504201530 74 257 1.7 7.0 0.00 0.00 0.00 56 1006.6
20260504200027 72 252 2.6 8.7 0.00 0.00 0.00 60 1006.7
20260504194527 72 256 2.6 7.0 0.00 0.00 0.00 59 1006.8
20260504191553 70 242 5.2 9.6 0.00 0.00 0.00 61 1006.6
20260504190002 70 260 3.5 9.6 0.00 0.00 0.00 63 1006.8
20260504184603 70 252 6.1 10.4 0.00 0.00 0.00 64 1006.8
20260504183031 71 263 4.3 7.8 0.00 0.00 0.00 65 1006.6
20260504181530 71 257 1.7 7.8 0.00 0.00 0.00 67 1006.8
20260504180028 70 235 4.3 7.0 0.00 0.00 0.00 68 1006.9
20260504174526 72 205 2.6 5.2 0.00 0.00 0.00 63 1006.7
20260504173022 73 15 0.9 2.6 0.00 0.00 0.00 53 1006.7
20260504171519 71 21 0.9 3.5 0.00 0.00 0.00 56 1006.8